RH
55 54 50 42 34 26 26 27 23 20 20 19 17 18 17 17 16 14 12 13 17 58 92 80 76 87 82 90 100 100 100 100 100 100 100 81 76 70 78 91 93 100 100
74 65 60 58 53 46 37 30 26 26 26 22 21 19 17 17 17 16 16 13 13 14 15 70 92 82 85 80 73 89 100 100 100 100 100 100 79 55 58 68 81 96 77
74 80 78 74 67 55 42 34 28 26 26 25 26 23 21 17 18 18 17 16 16 13 13 14 21 33 41 64 81 87 84 93 100 100 100 99 99 100 85 66 59 81 98
87 91 88 78 73 66 56 44 35 30 27 26 27 27 26 24 22 19 17 17 16 16 15 13 12 13 13 17 28 49 90 90 100 100 100 100 100 100 100 100 72 51 74
98 97 92 87 83 73 64 56 49 40 32 28 27 26 27 26 25 21 19 18 17 16 15 14 15 14 14 14 14 18 38 81 100 100 100 100 100 100 100 100 99 48 59
98 94 90 80 76 74 69 58 51 47 40 36 31 26 25 26 24 23 21 18 16 16 16 15 14 14 14 14 13 13 16 22 91 100 100 100 100 100 100 100 100 92 74
100 92 90 90 80 67 59 53 50 46 42 37 31 28 26 24 24 22 21 20 17 16 16 15 13 13 13 13 13 12 12 12 18 99 100 100 100 100 100 100 100 100 100
75 72 64 60 54 50 46 41 38 37 38 37 34 32 30 28 25 23 21 20 18 16 14 15 15 13 12 13 12 13 12 11 10 15 57 100 100 100 100 100 100 100 100
81 69 60 52 48 44 40 37 36 34 33 32 29 26 23 20 17 15 13 12 12 12 12 11 11 12 12 12 12 12 12 12 11 10 11 39 100 100 100 100 100 100 100
52 50 47 42 38 36 33 31 30 29 28 24 21 18 14 12 11 10 10 11 11 11 10 10 10 10 10 11 10 11 11 11 12 11 10 10 57 100 100 100 100 100 100
44 39 36 33 31 31 31 30 28 24 20 16 14 14 15 15 14 13 12 11 10 10 10 10 11 10 10 9 10 10 10 10 11 11 11 10 10 42 100 100 100 100 100
45 37 32 31 36 33 29 26 23 19 18 18 16 13 10 8 7 6 5 4 4 4 4 4 5 7 8 9 9 9 10 10 10 11 11 10 10 10 35 100 100 100 100
34 36 39 36 33 26 22 18 16 14 11 9 6 5 4 4 4 4 3 3 3 3 3 3 3 3 3 4 6 7 8 9 11 11 11 11 11 10 10 73 100 100 100
47 41 32 23 20 17 14 11 9 7 5 4 4 4 4 4 4 4 3 3 3 3 3 3 3 2 2 3 3 3 5 6 8 10 11 11 10 11 10 11 92 100 100
34 25 21 16 13 10 7 6 5 4 4 4 4 4 4 4 4 4 4 4 3 3 3 3 3 3 3 2 2 2 2 4 5 7 9 11 12 11 10 10 15 100 100
20 15 11 9 6 5 5 5 4 4 4 4 4 4 4 4 4 4 3 3 3 3 3 3 4 3 3 3 3 2 2 2 3 5 6 8 11 12 12 10 10 25 100
11 8 6 6 5 5 5 4 4 4 4 4 4 4 4 4 4 3 3 3 4 3 3 4 4 3 3 3 3 3 3 3 2 3 4 5 7 10 12 12 11 10 34
6 6 6 6 5 5 5 5 5 5 5 4 4 4 4 4 3 3 3 3 4 4 4 3 3 4 3 3 3 3 3 3 3 3 3 4 5 6 10 12 12 11 10
6 6 6 6 5 5 6 6 6 5 5 5 5 4 4 4 4 3 3 3 4 4 4 4 3 4 3 3 3 3 3 3 3 3 3 2 3 5 6 9 12 12 11
6 6 6 6 6 6 6 6 6 5 5 5 4 4 4 4 4 3 3 3 4 4 4 4 4 4 3 3 3 3 3 3 3 3 3 3 3 3 4 5 8 12 12
6 6 7 7 6 6 6 5 5 5 5 4 4 4 4 4 3 3 3 3 4 4 4 4 4 4 4 3 3 3 3 3 3 3 3 3 3 3 3 4 5 8 13
6 6 6 6 6 4 4 5 5 5 4 4 4 4 4 4 3 3 2 3 4 4 4 4 4 4 4 4 3 3 3 3 3 3 3 3 3 3 3 2 3 6 10
6 6 6 6 5 4 4 5 4 4 4 4 4 4 4 4 3 3 3 3 4 4 4 4 4 4 5 4 4 4 3 4 4 3 3 3 3 3 3 2 3 4 6
4 4 5 5 5 5 5 5 5 5 5 4 4 5 5 5 4 4 4 3 4 4 4 5 5 5 4 5 4 4 4 4 4 4 3 3 3 3 3 3 2 2 3
4 5 5 5 5 5 5 5 6 6 5 4 4 5 6 6 5 5 5 4 4 4 5 5 5 5 5 4 4 4 4 3 3 4 4 3 3 3 3 3 3 2 3
5 6 5 5 5 5 5 4 6 6 5 5 5 6 6 6 5 6 5 4 4 5 6 6 5 5 5 5 5 5 4 4 3 4 4 4 3 3 3 3 3 3 2
Wind_Speed
75 75 74 72 72 72 73 76 79 80 80 82 84 85 85 89 92 89 88 87 90 103 107 108 107 105 107 105 97 92 87 90 86 86 78 85 85 81 78 77 76 70 68
83 84 84 84 83 82 82 81 82 86 88 89 90 90 92 92 93 97 100 98 94 94 98 112 116 113 113 111 112 107 97 94 94 93 94 94 88 83 81 81 82 82 79
92 93 93 93 93 92 91 91 91 91 92 94 97 98 97 99 98 99 102 107 107 102 103 104 107 112 116 119 117 115 113 111 107 104 107 99 96 90 92 89 86 84 84
98 99 100 100 100 101 101 100 100 100 100 101 101 103 106 108 108 107 107 108 112 116 113 112 115 112 110 114 120 118 118 115 110 113 109 106 102 95 97 92 95 93 90
105 106 107 108 109 109 109 110 111 111 112 111 111 112 111 112 116 116 115 115 117 119 123 124 120 120 121 118 117 121 118 119 118 116 115 111 108 104 101 98 101 101 94
112 113 114 115 116 117 118 119 120 121 122 122 123 121 122 122 121 123 125 124 123 124 128 128 130 129 128 126 122 121 124 122 119 121 121 117 114 108 108 104 106 103 101
117 119 121 122 124 126 128 129 130 130 130 130 130 130 130 131 133 134 134 135 134 134 134 136 136 137 137 135 134 130 127 126 129 124 124 123 120 118 113 108 106 107 105
124 126 129 131 132 133 134 137 138 139 139 139 141 142 143 144 144 144 143 144 143 141 141 143 144 143 142 143 142 140 138 135 129 132 131 130 125 123 121 112 112 108 103
131 133 134 136 139 141 144 145 145 145 146 148 149 149 149 148 148 146 144 142 141 142 142 140 139 141 147 148 145 144 142 143 137 138 129 136 134 127 124 118 117 113 110
137 140 142 144 147 148 148 148 148 148 149 152 154 153 150 146 142 141 140 139 139 139 138 140 139 138 139 144 149 147 145 147 145 144 141 133 141 138 130 125 120 118 114
134 137 141 144 143 143 143 144 148 152 154 154 152 152 152 152 152 150 149 146 144 144 144 144 145 145 146 145 144 146 149 148 150 150 145 142 136 143 140 131 129 122 121
126 130 133 134 133 138 143 148 152 154 155 155 154 153 151 146 140 135 132 130 129 130 131 133 137 143 147 149 148 147 150 152 153 153 154 149 144 140 146 143 138 133 127
126 129 132 137 142 147 150 152 152 151 151 147 139 132 126 121 118 116 114 114 113 115 116 118 122 127 134 141 147 149 150 151 155 156 157 153 152 148 144 153 147 142 136
134 137 142 145 149 152 150 150 146 137 128 121 116 111 107 104 103 103 104 104 104 105 106 108 110 114 120 127 136 144 151 153 154 156 160 159 156 151 151 150 155 150 145
141 146 150 151 152 149 141 131 122 114 108 104 101 100 97 94 92 93 94 94 94 96 99 102 104 107 110 115 122 133 141 151 159 159 158 163 163 159 153 153 155 159 154
146 148 148 143 135 125 117 112 106 101 96 92 89 86 84 84 84 85 86 86 86 86 89 92 96 101 104 108 112 119 128 137 149 162 164 161 162 164 165 158 156 161 162
142 136 125 119 113 108 104 101 96 90 86 84 81 79 77 80 79 80 80 79 80 81 82 84 86 90 95 100 106 110 115 122 133 147 161 166 164 162 167 168 162 159 165
120 114 109 106 102 98 93 90 88 84 80 78 76 74 72 73 73 73 72 71 72 75 77 78 79 82 88 91 95 103 107 112 119 130 144 160 168 167 165 170 171 165 163
106 103 100 96 92 88 86 84 82 79 76 75 73 71 67 68 69 68 66 64 66 69 72 73 75 78 82 84 88 93 98 105 111 117 128 141 157 169 171 165 171 172 166
96 93 90 88 86 83 80 78 77 75 73 71 69 66 63 63 65 63 60 60 61 66 66 69 71 73 77 79 81 84 89 96 103 108 115 126 139 153 168 171 169 173 175
88 84 82 81 79 75 73 72 71 69 68 67 63 60 59 59 60 60 57 57 57 61 62 64 66 69 72 76 77 79 81 87 94 101 107 115 126 137 152 166 173 170 176
80 79 76 74 72 70 67 66 66 64 63 61 58 56 54 54 56 57 54 52 53 56 56 58 61 62 65 69 72 73 75 80 87 94 100 107 115 125 138 151 162 172 175
75 72 69 69 69 67 62 61 60 60 59 56 54 52 51 51 53 54 51 50 50 53 51 53 57 57 59 62 66 66 68 73 79 87 93 99 105 114 125 135 145 162 173
67 65 64 64 64 60 56 55 56 56 56 52 49 47 47 47 49 48 47 48 47 48 49 49 52 53 53 55 59 61 63 67 72 79 85 91 97 105 114 124 131 142 156
62 60 60 60 58 54 53 52 51 53 53 48 45 43 43 44 44 43 44 45 44 45 45 45 47 48 48 49 53 57 60 63 66 71 78 82 88 94 101 111 118 126 140
56 54 55 54 53 50 51 48 47 50 48 45 42 40 41 42 40 40 41 41 41 42 41 41 43 43 44 44 48 52 55 56 59 64 70 77 81 87 94 102 110 115 125
Wind_Direction
283 280 279 277 275 272 269 266 263 263 263 263 260 258 259 258 259 256 247 248 249 247 246 245 245 248 247 245 245 241 240 240 240 243 247 246 249 249 246 250 246 243 246
281 281 281 279 277 276 274 272 270 267 264 262 261 261 260 258 256 255 257 255 249 250 249 246 244 245 246 247 248 245 239 239 241 242 240 246 249 248 248 249 249 249 243
281 281 280 280 278 277 277 276 275 273 269 266 263 259 259 259 257 256 254 252 253 249 248 246 246 248 248 247 245 245 246 245 243 240 241 247 248 248 251 250 250 252 248
280 280 280 279 278 278 277 277 277 276 273 269 266 263 259 257 255 256 254 252 252 250 249 245 245 247 247 245 246 244 243 242 239 240 242 243 244 244 243 247 252 253 251
279 279 277 276 276 277 278 278 277 275 273 270 269 266 263 261 259 256 254 252 252 251 251 250 247 246 246 247 246 245 241 240 238 237 241 239 241 241 237 244 249 253 251
278 277 277 278 278 278 277 276 276 274 273 272 270 268 265 263 261 260 258 254 251 251 251 251 250 247 246 245 245 245 243 241 237 236 237 236 239 236 239 242 245 247 248
278 278 279 278 278 277 277 276 274 273 272 272 271 270 269 266 264 263 261 259 256 252 250 250 249 249 248 244 244 243 243 243 240 234 234 237 235 235 238 239 240 241 243
278 279 279 279 278 277 276 276 276 275 274 273 272 272 270 269 267 265 263 262 260 257 255 252 250 250 247 247 245 242 242 241 243 240 235 233 234 235 234 237 236 236 239
280 278 278 277 276 276 277 277 277 276 276 275 274 273 271 269 268 267 267 266 264 262 261 258 256 252 249 247 245 244 243 242 241 239 239 235 232 232 234 233 234 235 236
278 277 277 277 277 279 279 279 278 277 275 274 274 275 276 276 275 274 272 271 268 265 262 260 259 257 253 249 247 245 243 242 241 240 240 239 234 231 231 230 230 232 233
280 279 279 279 280 279 277 275 274 275 276 278 279 278 278 278 277 275 274 272 269 266 264 262 259 257 254 251 248 247 245 242 241 240 239 240 238 234 229 230 226 230 231
283 282 282 280 278 276 275 274 275 276 279 280 280 280 280 278 275 273 270 268 265 262 259 257 255 253 253 251 249 246 244 244 242 240 239 238 238 236 233 228 226 227 229
283 282 281 279 278 277 278 280 282 283 284 283 282 280 278 276 273 271 268 266 263 261 258 255 252 249 247 245 245 243 242 240 240 240 239 238 238 237 235 230 227 226 227
286 283 282 281 281 283 285 286 287 286 284 282 280 278 276 273 271 268 266 264 261 259 257 255 252 249 246 243 241 240 237 235 236 237 237 237 237 236 236 233 228 227 226
286 285 285 286 287 288 288 287 285 284 282 281 279 277 275 273 270 268 266 264 262 259 256 254 251 249 246 244 241 238 236 234 232 232 234 234 235 236 236 235 231 227 227
285 286 287 288 288 288 287 287 286 284 282 281 279 277 275 273 270 268 266 264 262 259 257 254 251 248 246 243 242 239 236 234 232 231 230 231 233 233 236 235 233 230 226
289 289 289 289 289 288 288 286 285 284 283 281 279 277 275 273 271 269 266 263 261 258 256 254 251 248 246 243 241 240 238 235 233 230 230 229 228 230 231 234 234 231 229
290 290 290 290 289 288 287 286 285 284 283 281 279 277 274 272 270 268 265 263 260 257 255 254 251 250 248 245 242 240 238 236 234 231 230 229 228 227 228 230 231 232 230
291 291 291 289 288 287 287 286 285 284 282 280 279 277 273 272 270 268 265 262 260 257 254 254 251 249 249 246 244 241 238 236 235 233 230 229 228 227 225 227 228 230 232
292 291 290 289 289 288 287 286 284 283 281 279 278 276 273 271 270 267 265 261 258 257 253 253 250 249 249 248 245 242 239 236 235 234 232 230 228 228 227 225 225 227 229
291 290 290 290 288 287 286 285 284 283 281 280 279 277 274 271 269 267 263 260 257 255 253 251 250 249 248 248 246 243 239 237 235 233 232 231 229 228 227 226 225 223 226
291 291 291 289 288 287 286 284 283 282 281 280 279 277 275 272 269 266 264 260 257 255 253 252 252 250 248 247 246 243 239 237 234 232 232 232 231 229 229 228 226 223 223
293 292 290 289 288 288 287 285 284 283 282 280 279 277 274 270 268 267 265 260 256 255 253 253 253 250 246 245 245 243 239 236 233 233 232 232 232 231 229 229 227 225 223
294 292 291 288 287 288 287 285 285 284 282 281 279 276 272 268 267 266 263 259 255 254 254 252 251 250 246 244 243 242 240 236 234 233 234 232 232 231 230 230 228 227 225
295 292 289 288 289 289 287 285 285 282 281 281 278 275 272 269 267 265 261 258 254 253 254 253 251 248 246 243 242 242 241 238 235 235 235 235 234 233 232 231 229 228 227
295 292 290 290 291 290 287 287 284 281 281 280 277 275 272 269 266 262 259 256 253 254 254 251 250 248 248 244 242 242 242 241 239 237 236 236 235 233 232 231 229 229 229